Location: Unspecified
(43.4354°N, 0.0000°E)
Time: 17:46:28
(UTC+00:00)

Courier 1B Rocket - Pass Details

Date: 23 June 2019
Orbit: 920 x 1202 km, 28.2° (Epoch: 19 October)

Event Time Altitude Azimuth Distance (km) Brightness Sun altitude
Exits shadow 02:50:05 - 183° (S) 2,956 7.0 -12.8°
Reaches altitude 10° 02:50:41 10° 179° (S) 2,876 7.0 -12.7°
Maximum altitude 02:52:55 12° 160° (SSE) 2,720 7.0 -12.5°
Drops below altitude 10° 02:55:07 10° 141° (SE) 2,810 7.3 -12.2°
Sets 02:59:54 0° 110° (ESE) 3,691 8.3 -11.7°
